Simultaneous Nadir Overpasses (SNOs) Predictions

Prediction of SNOs between GOES-16 and NOAA-19 Satellite Orbit:

Table of predicted SNOs for the next 14.0 days since TLE Epoch: 4/6/2017
Index Date Time (GOES-16) GOES-16 Lat,Lon NOAA-19 Lat,Lon Distance(km) Time Diff (sec)
1 04/07/2017 09:10:55 0.02, -89.50 0.14, -89.98 55.72 80
2 04/08/2017 08:56:49 0.02, -89.50 -0.48, -87.19 262.85 80
3 04/10/2017 21:18:37 -0.02, -89.49 -0.67, -92.39 330.26 80
4 04/11/2017 21:07:10 -0.02, -89.51 -0.05, -89.60 11.31 80
5 04/12/2017 20:58:25 -0.02, -89.52 0.63, -86.83 307.86 80
6 04/15/2017 09:19:53 0.01, -89.59 0.55, -91.94 267.92 80
7 04/16/2017 09:05:46 0.01, -89.60 -0.08, -89.15 51.27 80
8 04/17/2017 08:54:21 0.01, -89.62 -0.77, -86.38 370.49 80
9 04/19/2017 21:16:06 -0.01, -89.61 -0.49, -91.55 221.55 80




NCC Satellite Simultaneous Nadir Overpasses (SNOs) Prediction Service
